Eastsound, WA
on Tuesday, February 19, 2013

Tuesday
Previous Day Next Day
Daily Summary
 ActualAverage (KBLI)Record (KBLI)
Temperature
Mean Temperature °F 41°F  
Max Temperature 44°F 49°F 60°F (1981)
Min Temperature 35°F 33°F 8°F (1986)
Degree Days
Heating Degree Days 26 24  
Month to date heating degree days 467  
Cooling Degree Days 0 0  
Month to date cooling degree days 0  
Year to date cooling degree days 0  
Moisture
Dew Point 35°F   
Average Humidity 82    
Maximum Humidity 100    
Minimum Humidity 66    
Precipitation
Precipitation 0.00 in 0.10 in 0.95 in (1961)
Month to date precipitation 2.09  
Year to date precipitation 6.76  
Wind
Wind Speed 4 mph   
Max Wind Speed 15 mph   
Max Gust Speed 17 mph   
Visibility 10 miles   
Events     

Key: T is trace of precipitation, MM is missing value
Source: NWS Daily Summary
Time(PST)TemperatureDew PointHumidity Pressure Visibility Wind DirectionWind SpeedGust SpeedPrecipitationEvents Conditions
12:15 AM 39.2°F 35.6°F 87% 29.75 in 10.0 miles ENE 3.5 mph - N/A   Clear
12:35 AM 39.2°F 35.6°F 87% 29.75 in 10.0 miles NE 6.9 mph - N/A   Clear
12:55 AM 39.2°F 35.6°F 87% 29.74 in 10.0 miles Calm Calm - N/A   Clear
1:15 AM 39.2°F 35.6°F 87% 29.74 in 10.0 miles Calm Calm - N/A   Clear
1:35 AM 39.2°F 35.6°F 87% 29.74 in 10.0 miles ENE 5.8 mph - N/A   Scattered Clouds
1:55 AM 39.2°F 35.6°F 87% 29.74 in 10.0 miles ENE 5.8 mph - N/A   Overcast
2:15 AM 39.2°F 33.8°F 81% 29.74 in 10.0 miles East 4.6 mph - N/A   Overcast
2:35 AM 39.2°F 33.8°F 81% 29.74 in 10.0 miles ENE 5.8 mph - N/A   Overcast
2:55 AM 39.2°F 33.8°F 81% 29.74 in 10.0 miles East 3.5 mph - N/A   Overcast
3:15 AM 39.2°F 32.0°F 75% 29.74 in 10.0 miles ENE 4.6 mph - N/A   Overcast
3:35 AM 39.2°F 32.0°F 75% 29.74 in 10.0 miles ENE 4.6 mph - N/A   Overcast
3:55 AM 39.2°F 32.0°F 75% 29.75 in 10.0 miles Calm Calm - N/A   Overcast
4:15 AM 39.2°F 33.8°F 81% 29.75 in 10.0 miles Calm Calm - N/A   Overcast
4:35 AM 39.2°F 33.8°F 81% 29.75 in 10.0 miles North 3.5 mph - N/A   Overcast
4:55 AM 39.2°F 33.8°F 81% 29.75 in 10.0 miles Calm Calm - N/A   Overcast
5:15 AM 39.2°F 33.8°F 81% 29.76 in 10.0 miles Calm Calm - N/A   Overcast
5:35 AM 39.2°F 33.8°F 81% 29.76 in 10.0 miles Calm Calm - N/A   Mostly Cloudy
5:55 AM 39.2°F 33.8°F 81% 29.77 in 10.0 miles Calm Calm - N/A   Mostly Cloudy
6:15 AM 39.2°F 33.8°F 81% 29.77 in 10.0 miles Calm Calm - N/A   Overcast
6:35 AM 39.2°F 32.0°F 75% 29.78 in 10.0 miles Calm Calm - N/A   Mostly Cloudy
7:15 AM 39.2°F 32.0°F 75% 29.79 in 10.0 miles Calm Calm - N/A   Overcast
7:35 AM 39.2°F 32.0°F 75% 29.79 in 10.0 miles Calm Calm - N/A   Overcast
7:55 AM 39.2°F 32.0°F 75% 29.80 in 10.0 miles Calm Calm - N/A   Overcast
8:15 AM 39.2°F 32.0°F 75% 29.81 in 10.0 miles NNE 5.8 mph - N/A   Overcast
8:35 AM 39.2°F 32.0°F 75% 29.81 in 10.0 miles NE 6.9 mph - N/A   Overcast
8:55 AM 39.2°F 30.2°F 70% 29.82 in 10.0 miles NE 5.8 mph - N/A   Overcast
9:15 AM 39.2°F 32.0°F 75% 29.82 in 10.0 miles North 6.9 mph - N/A   Mostly Cloudy
9:35 AM 41.0°F 32.0°F 70% 29.83 in 10.0 miles NE 6.9 mph - N/A   Partly Cloudy
9:55 AM 41.0°F 32.0°F 70% 29.83 in 10.0 miles NNE 5.8 mph - N/A   Clear
10:15 AM 41.0°F 32.0°F 70% 29.83 in 10.0 miles NNE 4.6 mph - N/A   Clear
10:35 AM 42.8°F 32.0°F 66% 29.83 in 10.0 miles North 4.6 mph - N/A   Clear
10:55 AM 42.8°F 33.8°F 70% 29.83 in 10.0 miles NE 4.6 mph - N/A   Clear
11:15 AM 42.8°F 32.0°F 66% 29.83 in 10.0 miles NE 5.8 mph - N/A   Partly Cloudy
11:35 AM 42.8°F 32.0°F 66% 29.85 in 10.0 miles North 4.6 mph - N/A   Scattered Clouds
11:55 AM 44.6°F 35.6°F 71% 29.85 in 10.0 miles North 8.1 mph - N/A   Mostly Cloudy
12:15 PM 44.6°F 35.6°F 71% 29.85 in 10.0 miles North 8.1 mph - N/A   Overcast
12:35 PM 44.6°F 39.2°F 81% 29.85 in 10.0 miles North 12.7 mph - N/A   Scattered Clouds
12:55 PM 44.6°F 39.2°F 81% 29.86 in 10.0 miles NNW 10.4 mph - N/A   Scattered Clouds
1:15 PM 44.6°F 39.2°F 81% 29.86 in 10.0 miles NNW 11.5 mph - N/A   Mostly Cloudy
1:35 PM 42.8°F 37.4°F 81% 29.86 in 10.0 miles NNW 10.4 mph 16.1 mph N/A   Scattered Clouds
1:55 PM 42.8°F 39.2°F 87% 29.87 in 10.0 miles NNW 11.5 mph - N/A   Scattered Clouds
2:15 PM 42.8°F 39.2°F 87% 29.87 in 10.0 miles NNW 11.5 mph 17.3 mph N/A   Mostly Cloudy
2:35 PM 44.6°F 39.2°F 81% 29.87 in 10.0 miles North 15.0 mph - N/A   Scattered Clouds
3:15 PM 44.6°F 37.4°F 76% 29.87 in 10.0 miles North 11.5 mph - N/A   Clear
3:35 PM 44.6°F 37.4°F 76% 29.87 in 10.0 miles North 11.5 mph - N/A   Clear
4:35 PM 44.6°F 37.4°F 76% 29.88 in 10.0 miles North 6.9 mph - N/A   Clear
4:55 PM 44.6°F 37.4°F 76% 29.88 in 10.0 miles NNW 8.1 mph - N/A   Clear
5:35 PM 42.8°F 37.4°F 81% 29.88 in 10.0 miles NNW 8.1 mph - N/A   Clear
5:55 PM 42.8°F 37.4°F 81% 29.89 in 10.0 miles North 6.9 mph - N/A   Clear
6:15 PM 42.8°F 37.4°F 81% 29.89 in 10.0 miles North 4.6 mph - N/A   Clear
6:35 PM 41.0°F 37.4°F 87% 29.90 in 10.0 miles Calm Calm - N/A   Clear
6:55 PM 39.2°F 35.6°F 87% 29.90 in 10.0 miles Calm Calm - N/A   Clear
7:15 PM 37.4°F 35.6°F 93% 29.91 in 10.0 miles Calm Calm - N/A   Clear
7:35 PM 37.4°F 35.6°F 93% 29.91 in 10.0 miles Calm Calm - N/A   Clear
7:55 PM 35.6°F 35.6°F 100% 29.92 in 10.0 miles Calm Calm - N/A   Clear
8:15 PM 35.6°F 35.6°F 100% 29.93 in 10.0 miles Calm Calm - N/A   Clear
8:35 PM 35.6°F 35.6°F 100% 29.93 in 10.0 miles Calm Calm - N/A   Clear
8:55 PM 35.6°F 35.6°F 100% 29.94 in 10.0 miles Calm Calm - N/A   Clear
9:15 PM 35.6°F 35.6°F 100% 29.94 in 10.0 miles Calm Calm - N/A   Clear
9:35 PM 35.6°F 35.6°F 100% 29.95 in 10.0 miles Calm Calm - N/A   Clear
9:55 PM 35.6°F 35.6°F 100% 29.95 in 10.0 miles Calm Calm - N/A   Clear
10:15 PM 35.6°F 35.6°F 100% 29.96 in 10.0 miles Calm Calm - N/A   Clear
10:55 PM 35.6°F 35.6°F 100% 29.97 in 9.0 miles Calm Calm - N/A   Clear
11:15 PM 35.6°F 35.6°F 100% 29.98 in 10.0 miles North - - N/A   Clear
11:35 PM 35.6°F 33.8°F 93% 29.98 in 10.0 miles Calm Calm - N/A   Clear
Moon Phase
Feb. 19 Feb. 25 Mar. 04 Mar. 11 Mar. 19
Sunrise:07:11 AM (PST) Moon Rise:12:00 PM (PST)2/19
Sunset:05:39 PM (PST) Moon Set:03:03 AM (PST)2/19

Copyright © 2014 The Weather Underground, Inc.